Station NIAN6 - 9063012 - Niagara Intake, NY Image indicating link to RSS feed of recent meteorological observations for station NIAN6


Conditions at NIAN6 as of
(7:54 pm EDT)
2354 GMT on 07/18/2024:
     

Click on the graph icon in the table below to see a time series plot of the last five days of that observation.

5-day plot - Atmospheric Pressure Atmospheric Pressure (PRES):30.07 in
5-day plot - Air Temperature Air Temperature (ATMP): 70.0 °F
NOS Water Level Observation Network Water Level
Previous observations
TIME
(EDT)
5-day plot - Wind Direction
WDIR
 
5-day plot - Wind Speed
WSPD
kts
5-day plot - Wind Gust
GST
kts
5-day plot - Wave Height
WVHT
ft
5-day plot - Dominant Wave Period
DPD
sec
5-day plot - Average Wave Period
APD
sec
5-day plot - Mean Wave Direction
MWD
 
5-day plot - Atmospheric Pressure
PRES
in
5-day plot - Pressure Tendency
PTDY
in
5-day plot - Air Temperature
ATMP
°F
5-day plot - Water Temperature
WTMP
°F
5-day plot - Dew Point
DEWP
°F
5-day plot - Salinity
SAL
psu
5-day plot - Visibility
VIS
nmi
5-day plot - Tide (above MLLW)
TIDE
ft
2024-07-18 07:48 pm-------30.07- 70.3-----
2024-07-18 07:42 pm-------30.07- 70.3-----
2024-07-18 07:36 pm-------30.07- 70.0-----
2024-07-18 07:30 pm-------30.07- 70.2-----
2024-07-18 07:24 pm-------30.07- 70.9-----
2024-07-18 07:18 pm-------30.07- 70.9-----
2024-07-18 07:12 pm-------30.07- 70.5-----
2024-07-18 07:06 pm-------30.07- 70.5-----
2024-07-18 07:00 pm-------30.06+0.01 70.2-----
2024-07-18 06:54 pm-------30.06- 70.5-----
2024-07-18 06:48 pm-------30.06- 70.9-----
2024-07-18 06:42 pm-------30.06- 71.2-----
2024-07-18 06:36 pm-------30.06- 70.2-----
2024-07-18 06:30 pm-------30.06- 71.2-----
2024-07-18 06:24 pm-------30.06- 71.4-----
2024-07-18 06:18 pm-------30.06- 71.1-----
2024-07-18 06:12 pm-------30.06- 71.4-----
2024-07-18 06:06 pm-------30.06- 71.4-----
2024-07-18 06:00 pm-------30.06+0.00 71.4-----
2024-07-18 05:54 pm-------30.06- 72.0-----
2024-07-18 05:48 pm-------30.06- 71.6-----
2024-07-18 05:42 pm-------30.06- 70.9-----
2024-07-18 05:36 pm-------30.06- 71.6-----
2024-07-18 05:30 pm-------30.06- 71.8-----
2024-07-18 05:24 pm-------30.06- 70.9-----
2024-07-18 05:18 pm-------30.06- 71.8-----
2024-07-18 05:12 pm-------30.06- 71.8-----
2024-07-18 05:06 pm-------30.06- 70.3-----
2024-07-18 05:00 pm-------30.06+0.01 71.6-----
2024-07-18 04:54 pm-------30.06- 70.7-----
2024-07-18 04:48 pm-------30.06- 71.2-----
2024-07-18 04:42 pm-------30.06- 71.6-----
2024-07-18 04:36 pm-------30.06- 71.1-----
2024-07-18 04:30 pm-------30.06- 71.1-----
2024-07-18 04:24 pm-------30.06- 71.2-----
2024-07-18 04:18 pm-------30.06- 71.1-----
2024-07-18 04:12 pm-------30.06- 71.4-----
2024-07-18 04:06 pm-------30.06- 71.6-----
2024-07-18 04:00 pm-------30.06+0.00 71.2-----
2024-07-18 03:54 pm-------30.06- 71.2-----
2024-07-18 03:48 pm-------30.06- 71.4-----
2024-07-18 03:42 pm-------30.06- 70.3-----
2024-07-18 03:36 pm-------30.06- 70.5-----
2024-07-18 03:30 pm-------30.06- 71.4-----
2024-07-18 03:24 pm-------30.06- 70.3-----
2024-07-18 03:18 pm-------30.06- 71.4-----
2024-07-18 03:12 pm-------30.05- 71.2-----
2024-07-18 03:06 pm-------30.06- 70.7-----
2024-07-18 03:00 pm-------30.05+0.00 70.2-----
2024-07-18 02:54 pm-------30.05- 70.5-----
2024-07-18 02:48 pm-------30.05- 70.7-----
2024-07-18 02:42 pm-------30.05- 70.7-----
2024-07-18 02:36 pm-------30.05- 70.5-----
2024-07-18 02:30 pm-------30.05- 70.3-----
2024-07-18 02:24 pm-------30.05- 70.7-----
2024-07-18 02:18 pm-------30.05- 70.3-----
2024-07-18 02:12 pm-------30.05- 70.9-----
2024-07-18 02:06 pm-------30.05- 71.2-----
2024-07-18 02:00 pm-------30.05+0.00 70.2-----
2024-07-18 01:54 pm-------30.05- 70.5-----
2024-07-18 01:48 pm-------30.05-------
2024-07-18 01:42 pm-------30.05-------
2024-07-18 01:36 pm-------30.05-------
2024-07-18 01:30 pm-------30.05- 70.7-----
2024-07-18 01:24 pm-------30.05- 70.7-----
2024-07-18 01:18 pm-------30.05- 71.4-----
2024-07-18 01:12 pm-------30.05- 69.4-----
2024-07-18 01:06 pm-------30.05- 70.5-----
2024-07-18 01:00 pm-------30.05+0.03 69.6-----
2024-07-18 12:54 pm-------30.06- 69.8-----
2024-07-18 12:48 pm-------30.05- 70.3-----
2024-07-18 12:42 pm-------30.05- 68.9-----
2024-07-18 12:36 pm-------30.05- 69.6-----
2024-07-18 12:30 pm-------30.05- 69.4-----
2024-07-18 12:24 pm-------30.05- 70.0-----
2024-07-18 12:18 pm-------30.05- 68.9-----
2024-07-18 12:12 pm-------30.05- 70.2-----
2024-07-18 12:06 pm-------30.05- 69.3-----
2024-07-18 12:00 pm-------30.05+0.03 70.0-----
2024-07-18 11:54 am-------30.05- 69.4-----
2024-07-18 11:48 am-------30.04- 68.9-----
2024-07-18 11:42 am-------30.05- 68.7-----
2024-07-18 11:36 am-------30.04- 68.7-----
2024-07-18 11:30 am-------30.04- 67.8-----
2024-07-18 11:24 am-------30.04- 68.5-----
2024-07-18 11:18 am-------30.04- 67.8-----
2024-07-18 11:12 am-------30.04- 68.7-----
2024-07-18 11:06 am-------30.04- 68.0-----
2024-07-18 11:00 am-------30.04+0.04 67.5-----
2024-07-18 10:54 am-------30.04- 68.4-----
2024-07-18 10:48 am-------30.04- 68.5-----
2024-07-18 10:42 am-------30.03- 69.1-----
2024-07-18 10:36 am-------30.03- 68.2-----
2024-07-18 10:30 am-------30.03- 68.0-----
2024-07-18 10:24 am-------30.03- 67.6-----
2024-07-18 10:18 am-------30.03- 68.2-----
2024-07-18 10:12 am-------30.03- 68.4-----
2024-07-18 10:06 am-------30.03- 68.0-----
2024-07-18 10:00 am-------30.03+0.04 67.3-----
2024-07-18 09:54 am-------30.03- 67.5-----
2024-07-18 09:48 am-------30.03- 67.8-----
2024-07-18 09:42 am-------30.02- 66.7-----
2024-07-18 09:36 am-------30.02- 66.6-----
2024-07-18 09:30 am-------30.02- 66.4-----
2024-07-18 09:24 am-------30.02- 66.4-----
2024-07-18 09:18 am-------30.02- 66.6-----
2024-07-18 09:12 am-------30.02- 66.9-----
2024-07-18 09:06 am-------30.02- 67.1-----
2024-07-18 09:00 am-------30.02+0.05 66.4-----
2024-07-18 08:54 am-------30.02- 65.8-----
2024-07-18 08:48 am-------30.01- 65.7-----
2024-07-18 08:42 am-------30.01- 65.5-----
2024-07-18 08:36 am-------30.01- 65.5-----
2024-07-18 08:30 am-------30.01- 65.7-----
2024-07-18 08:24 am-------30.01- 66.0-----
2024-07-18 08:18 am-------30.01- 66.0-----
2024-07-18 08:12 am-------30.01- 66.2-----
2024-07-18 08:06 am-------30.00- 66.2-----
2024-07-18 08:00 am-------30.00+0.05 65.8-----
2024-07-18 07:54 am-------30.00- 65.8-----
2024-07-18 07:48 am-------30.00-------
2024-07-18 07:42 am-------30.00-------
2024-07-18 07:36 am-------30.00-------
2024-07-18 07:30 am-------29.99- 65.3-----
2024-07-18 07:24 am-------29.99- 65.1-----
2024-07-18 07:18 am-------29.99- 65.1-----
2024-07-18 07:12 am-------29.98- 64.9-----
2024-07-18 07:06 am-------29.98- 64.6-----
2024-07-18 07:00 am-------29.98+0.04 64.4-----
2024-07-18 06:54 am-------29.98- 64.2-----
2024-07-18 06:48 am-------29.98- 63.9-----
2024-07-18 06:42 am-------29.98- 63.7-----
2024-07-18 06:36 am-------29.98- 63.5-----
2024-07-18 06:30 am-------29.98- 63.1-----
2024-07-18 06:24 am-------29.97- 63.0-----
2024-07-18 06:18 am-------29.97- 63.0-----
2024-07-18 06:12 am-------29.97- 63.1-----
2024-07-18 06:06 am-------29.97- 63.0-----
2024-07-18 06:00 am-------29.97+0.04 63.1-----
2024-07-18 05:54 am-------29.97- 63.1-----
2024-07-18 05:48 am-------29.96- 63.1-----
2024-07-18 05:42 am-------29.96- 63.3-----
2024-07-18 05:36 am-------29.96- 63.3-----
2024-07-18 05:30 am-------29.96- 63.7-----
2024-07-18 05:24 am-------29.96- 63.7-----
2024-07-18 05:18 am-------29.96- 63.9-----
2024-07-18 05:12 am-------29.96- 64.0-----
2024-07-18 05:06 am-------29.96- 64.0-----
2024-07-18 05:00 am-------29.95+0.03 64.2-----
2024-07-18 04:54 am-------29.95- 64.4-----
2024-07-18 04:48 am-------29.95-------
2024-07-18 04:42 am-------29.95-------
2024-07-18 04:36 am-------29.95-------
2024-07-18 04:30 am-------29.95- 64.9-----
2024-07-18 04:24 am-------29.95- 64.9-----
2024-07-18 04:18 am-------29.94- 65.1-----
2024-07-18 04:12 am-------29.94- 65.3-----
2024-07-18 04:06 am-------29.94- 65.5-----
2024-07-18 04:00 am-------29.94+0.02 65.7-----
2024-07-18 03:54 am-------29.93- 65.5-----
2024-07-18 03:48 am-------29.93- 65.5-----
2024-07-18 03:42 am-------29.93- 65.7-----
2024-07-18 03:36 am-------29.93- 65.7-----
2024-07-18 03:30 am-------29.93- 65.8-----
2024-07-18 03:24 am-------29.93- 66.0-----
2024-07-18 03:18 am-------29.93- 66.2-----
2024-07-18 03:12 am-------29.93- 66.4-----
2024-07-18 03:06 am-------29.93- 66.6-----
2024-07-18 03:00 am-------29.93+0.03 66.7-----
2024-07-18 02:54 am-------29.93- 66.9-----
2024-07-18 02:48 am-------29.93- 66.9-----
2024-07-18 02:42 am-------29.93- 66.9-----
2024-07-18 02:36 am-------29.93- 66.9-----
2024-07-18 02:30 am-------29.93- 66.9-----
2024-07-18 02:24 am-------29.93- 66.9-----
2024-07-18 02:18 am-------29.93- 66.9-----
2024-07-18 02:12 am-------29.92- 66.9-----
2024-07-18 02:06 am-------29.92- 66.9-----
2024-07-18 02:00 am-------29.92+0.03 66.9-----
2024-07-18 01:54 am-------29.92- 67.3-----
2024-07-18 01:48 am-------29.92- 67.5-----
2024-07-18 01:42 am-------29.92- 67.6-----
2024-07-18 01:36 am-------29.92- 67.8-----
2024-07-18 01:30 am-------29.92- 68.2-----
2024-07-18 01:24 am-------29.92- 68.2-----
2024-07-18 01:18 am-------29.92- 68.4-----
2024-07-18 01:12 am-------29.92- 68.5-----
2024-07-18 01:06 am-------29.92- 68.5-----
2024-07-18 01:00 am-------29.92+0.03 68.5-----
2024-07-18 12:54 am-------29.91- 68.9-----
2024-07-18 12:48 am-------29.91- 68.9-----
2024-07-18 12:42 am-------29.91- 69.1-----
2024-07-18 12:36 am-------29.91- 69.3-----
2024-07-18 12:30 am-------29.91- 69.4-----
2024-07-18 12:24 am-------29.91- 69.4-----
2024-07-18 12:18 am-------29.91- 69.4-----
2024-07-18 12:12 am-------29.91- 69.4-----
2024-07-18 12:06 am-------29.90- 69.4-----
2024-07-18 12:00 am-------29.90+0.04 69.4-----
2024-07-17 11:54 pm-------29.90- 69.6-----
2024-07-17 11:48 pm-------29.90- 70.0-----
2024-07-17 11:42 pm-------29.90- 70.2-----
2024-07-17 11:36 pm-------29.90- 70.5-----
2024-07-17 11:30 pm-------29.90- 70.5-----
2024-07-17 11:24 pm-------29.90- 70.9-----
2024-07-17 11:18 pm-------29.89- 71.1-----
2024-07-17 11:12 pm-------29.89- 71.2-----
2024-07-17 11:06 pm-------29.89- 71.2-----
2024-07-17 11:00 pm-------29.89+0.04 71.4-----
2024-07-17 10:54 pm-------29.89- 71.4-----
2024-07-17 10:48 pm-------29.89- 71.8-----
2024-07-17 10:42 pm-------29.89- 71.8-----
2024-07-17 10:36 pm-------29.89- 71.8-----
2024-07-17 10:30 pm-------29.89- 71.4-----
2024-07-17 10:24 pm-------29.89- 71.6-----
2024-07-17 10:18 pm-------29.89- 71.8-----
2024-07-17 10:12 pm-------29.89- 72.0-----
2024-07-17 10:06 pm-------29.88- 72.0-----
2024-07-17 10:00 pm-------29.88+0.04 72.3-----
2024-07-17 09:54 pm-------29.88- 72.1-----
2024-07-17 09:48 pm-------29.88- 72.0-----
2024-07-17 09:42 pm-------29.88- 72.0-----
2024-07-17 09:36 pm-------29.88- 71.2-----
2024-07-17 09:30 pm-------29.88- 71.8-----
2024-07-17 09:24 pm-------29.88- 71.4-----
2024-07-17 09:18 pm-------29.88- 72.3-----
2024-07-17 09:12 pm-------29.88- 73.9-----
2024-07-17 09:06 pm-------29.87- 74.7-----
2024-07-17 09:00 pm-------29.87- 74.1-----
2024-07-17 08:54 pm-------29.87- 73.8-----
2024-07-17 08:48 pm-------29.87- 73.2-----
2024-07-17 08:42 pm-------29.87- 72.7-----
2024-07-17 08:36 pm-------29.87- 72.5-----
2024-07-17 08:30 pm-------29.87- 73.8-----
2024-07-17 08:24 pm-------29.86- 74.8-----
2024-07-17 08:18 pm-------29.86- 75.0-----
2024-07-17 08:12 pm-------29.85- 74.8-----
2024-07-17 08:06 pm-------29.85- 75.0-----
2024-07-17 08:00 pm-------29.85+0.02 75.2-----
2024-07-17 07:54 pm-------29.85- 75.4-----